Lid_Strength_Index
13 13 13 12 12 12 11 11 11 10 9 9 8 8 8 8 8 7 7 5 4 3 1 2 2 2 1 0 -1 -1 -1 -1 -1 -1 -1 -1 -1 -1 -1 -1 -1 -1 -1
13 13 13 13 13 12 12 11 11 11 10 10 9 9 9 9 8 8 8 7 5 4 3 1 0 0 0 0 -1 -1 -1 -1 -1 -1 -1 -1 -1 -1 -1 -1 -1 -1 -1
13 14 14 14 13 12 12 12 12 11 11 10 10 10 10 9 9 9 9 8 7 6 5 3 2 1 -0 -1 -0 1 1 0 -1 -1 -1 -1 -1 -1 -1 -1 -1 -1 -1
12 13 13 14 13 12 12 13 13 13 12 12 12 11 11 10 10 10 9 9 8 7 6 5 4 3 2 1 0 0 1 2 1 -1 -1 -1 -1 -1 -1 -1 -1 -1 -1
12 13 14 13 13 13 13 14 13 13 13 12 12 12 12 12 11 10 10 9 9 8 7 6 4 4 3 2 1 1 0 2 3 2 -0 -1 -1 -1 -1 -1 -1 -1 -1
12 13 13 13 13 14 14 14 14 13 13 13 12 12 12 11 11 11 11 9 9 8 8 7 7 6 4 3 3 2 1 0 0 0 -1 -0 -1 -1 -1 -0 -1 -1 -1
13 13 14 14 14 14 15 14 13 13 12 11 12 12 11 11 10 10 10 10 10 9 9 8 7 7 7 6 5 4 2 1 0 1 0 -1 -0 0 -1 -1 -1 -1 -1
13 13 14 14 15 15 14 13 12 12 12 11 13 13 14 12 11 11 11 11 11 10 10 8 9 9 9 9 8 5 4 3 2 1 1 -0 -1 -1 0 -1 -1 -1 -1
13 14 14 15 15 14 14 13 12 12 13 12 12 12 15 15 13 11 11 11 10 10 10 9 9 9 9 9 8 8 7 6 4 3 2 1 1 -1 -1 -1 -1 -1 -1
14 15 15 14 14 13 13 12 12 12 12 13 12 10 11 11 13 15 12 11 11 11 10 11 9 9 9 10 9 9 8 7 6 5 4 3 2 1 -0 -0 -1 -1 -1
15 14 14 15 15 14 14 13 13 13 13 13 13 13 12 12 12 13 15 13 11 11 11 9 9 9 9 9 10 9 8 7 6 6 5 4 3 2 1 -0 -1 -1 -1
15 15 14 14 13 13 13 13 13 13 13 13 13 13 13 13 13 13 14 13 13 11 10 9 9 8 7 8 7 8 8 7 6 6 6 5 4 4 3 2 -0 0 -1
16 15 15 15 14 13 13 13 13 14 13 14 14 14 13 13 12 13 14 14 14 12 11 10 10 9 7 7 6 7 7 7 6 6 5 5 4 4 3 3 2 0 -0
17 14 14 14 14 14 14 14 14 14 13 14 15 14 14 14 13 13 14 14 16 14 12 12 10 8 8 9 8 5 6 6 6 6 5 5 5 4 4 3 2 2 1
15 14 14 14 14 14 14 14 15 15 15 15 15 15 15 14 13 13 13 13 15 16 14 13 11 11 6 6 6 6 7 6 5 5 6 5 5 5 4 4 3 2 1
15 15 15 15 15 15 15 15 15 15 15 15 15 16 15 14 14 14 14 13 13 14 14 10 9 8 7 7 6 7 7 6 6 6 6 5 5 5 5 5 3 1 1
15 15 16 16 16 16 15 15 15 16 16 16 15 16 16 15 16 14 14 13 13 13 13 11 9 8 8 7 7 7 7 8 9 7 6 5 6 6 6 5 5 3 1
15 16 16 16 16 15 15 16 17 16 16 16 16 16 17 16 16 15 15 15 14 13 13 13 10 10 8 7 7 8 8 9 10 9 7 6 6 6 6 6 6 6 6
16 15 15 15 15 15 20 20 17 18 21 22 21 22 20 19 19 16 16 16 15 14 13 13 12 9 8 7 9 8 9 9 10 9 8 9 8 7 7 7 7 6 7
15 15 14 15 18 19 20 22 21 22 23 23 23 22 20 19 19 17 16 15 15 14 14 13 12 10 9 9 11 12 11 11 11 11 10 10 10 10 9 8 8 8 7
15 14 20 22 22 22 20 23 21 21 23 23 24 22 21 18 15 14 15 16 16 14 14 14 14 12 11 11 11 12 12 11 12 14 13 12 13 12 12 11 10 9 8
21 22 22 23 22 19 16 14 15 22 22 21 21 21 19 18 16 14 13 13 13 16 16 15 15 14 13 13 13 14 14 14 14 14 14 13 14 14 14 13 9 9 9
21 21 22 22 21 21 15 14 13 18 20 21 20 19 18 16 17 17 14 13 14 14 14 15 15 15 14 13 14 14 14 14 16 16 17 16 17 18 16 15 10 9 9
20 20 20 19 19 18 14 13 13 15 17 17 18 19 19 18 18 16 15 16 16 16 16 16 17 16 15 13 14 14 15 16 15 16 17 20 18 17 16 16 12 10 10
18 18 18 18 18 17 15 14 14 16 16 16 16 17 18 18 15 14 16 17 17 16 15 14 14 13 14 14 14 16 18 20 20 18 17 17 17 17 16 16 16 13 12
17 17 17 17 17 18 15 14 14 16 17 17 17 17 15 16 14 13 16 17 19 17 17 18 18 17 17 18 16 18 20 22 23 22 19 20 19 19 17 17 17 17 17